Regional Weather Roundup
Issued by NWS

Home | Current Version | Previous Version | Text Only | Print | Product List | Glossary On
Versions: 1 2 3 4 5 6 7 8 9 10 11 12 13 14 15 16 17 18 19 20 21 22 23 24 25 26 27 28 29 30 31 32 33 34 35 36 37 38 39 40 41 42 43 44 45 46 47 48 49 50
000
ASUS45 KPSR 010810
RWRAZ

ARIZONA HOURLY REGIONAL WEATHER ROUNDUP
NATIONAL WEATHER SERVICE PHOENIX AZ
100 AM MST SAT AUG 01 2015

NOTE: FAIR INDICATES FEW OR NO CLOUDS BELOW 12,000 FEET WITH NO
SIGNIFICANT WEATHER AND/OR OBSTRUCTIONS TO VISIBILITY.

AZZ001>003-036-010900-
NORTHWEST ARIZONA

CITY           SKY/WX    TMP DP  RH WIND       PRES   REMARKS
BULLHEAD CITY  CLOUDY    95  59  30 SW9       29.85S
KINGMAN        CLOUDY    79  51  37 S5        30.08S
$$

AZZ004>008-015-016-018-010900-
NORTH CENTRAL ARIZONA

CITY           SKY/WX    TMP DP  RH WIND       PRES   REMARKS
GRAND CANYON   CLOUDY    62  55  77 N3        30.32F
WILLIAMS       CLOUDY    63  52  67 S7        30.40F
PRESCOTT       CLOUDY    67  62  84 SW6       30.22F
FLAGSTAFF      CLOUDY    59  54  83 CALM      30.37F
PAYSON         CLOUDY    70  57  64 CALM      30.24F
PAGE           MOCLDY    79  50  36 S7        30.13F
$$

AZZ009>014-017-010900-
NORTHEAST ARIZONA

CITY           SKY/WX    TMP DP  RH WIND       PRES   REMARKS
WINSLOW        CLOUDY    72  58  61 E8        30.23S
SAINT JOHNS    CLOUDY    68  58  70 CALM      30.28S
SHOW LOW       CLOUDY    63  54  72 E3        30.35F
$$

AZZ023-010900-
GREATER PHOENIX AREA

CITY           SKY/WX    TMP DP  RH WIND       PRES   REMARKS
PHOENIX        CLOUDY    81  72  74 S3        29.93F
LUKE AFB       CLOUDY    81  72  74 SE7       29.93S
DEER VALLEY    CLOUDY    81  66  60 SW7       29.95S
SCOTTSDALE     CLOUDY    83  65  54 S7        29.97R
MESA-GATEWAY   CLOUDY    79  68  69 W5        29.97F
$$

AZZ027-028-010900-
SOUTHWEST MARICOPA COUNTY AND PINAL COUNTY

CITY           SKY/WX    TMP DP  RH WIND       PRES   REMARKS
CASA GRANDE    CLOUDY    77  72  83 CALM      29.95S
GILA BEND      FAIR      83  65  53 E8        29.91R
$$

AZZ503-504-507>509-010900-
SOUTHEAST ARIZONA

CITY           SKY/WX    TMP DP  RH WIND       PRES   REMARKS
TUCSON         PTCLDY    77  64  64 S6        30.05F
DAVIS-MONTHAN  CLOUDY    74  67  78 S7        30.02F
NOGALES        CLEAR     70  61  73 NE5       30.12F
SIERRA VISTA   PTCLDY    65  63  91 NE1       30.20F
DOUGLAS          N/A    N/A N/A N/A MISG      30.15F
SAFFORD        CLOUDY    72  67  84 N14       30.09F
$$

AZZ020-021-025-026-031-010900-
SOUTHWEST ARIZONA

CITY           SKY/WX    TMP DP  RH WIND       PRES   REMARKS
YUMA           MOCLDY    95  65  37 E8        29.84S
$$

CAZ031-033-041-043-047-048-061-010900-
SOUTHERN CALIFORNIA

CITY           SKY/WX    TMP DP  RH WIND       PRES   REMARKS
DOWNTOWN L.A.  CLOUDY    68  65  90 CALM      29.96S
L.A. AIRPORT   CLOUDY    67  65  93 W6        29.97S FOG
SAN DIEGO      PTCLDY    70  63  78 NW3       29.99S
BURBANK        CLEAR     71  64  78 SE5       29.97S
ONTARIO        PTCLDY    72  63  73 W6        29.98R
RIVERSIDE      CLEAR     74  64  71 W3        29.98R
PALM SPRINGS   PTCLDY    89  60  37 NW3       29.86S
EL CENTRO NAS  PTCLDY    88  41  19 W6        29.82S
IMPERIAL       PTCLDY    90  43  19 SE12      29.81R
BLYTHE         CLOUDY    91  65  41 S9        29.84S
NEEDLES        CLOUDY    96  60  30 SE8       29.87S
$$

NVZ020-UTZ003-010900-
SOUTHERN NEVADA-UTAH

CITY           SKY/WX    TMP DP  RH WIND       PRES   REMARKS
LAS VEGAS      CLOUDY    92  55  28 SW7       29.90F
SALT LAKE CITY PTCLDY    70  38  31 SE5       30.11F
$$

NMZ009-TXZ055-010900-
NEW MEXICO-WEST TEXAS

CITY           SKY/WX    TMP DP  RH WIND       PRES   REMARKS
ALBUQUERQUE    CLOUDY    70  57  63 S5        30.31S
EL PASO        MOCLDY    82  52  35 CALM      30.12F
$$


........................KEY........................
SKY/WX - SKY CONDITION/WEATHER
TMP    - TEMPERATURE IN FAHRENHEIT
DP     - DEW POINT IN FAHRENHEIT
RH     - RELATIVE HUMIDITY IN PERCENT
WIND   - DIRECTION AND SPEED IN MILES PER HOUR (MPH)
VRB    - VARIABLE WIND DIRECTION
PRES   - MEAN SEA LEVEL PRESSURE IN INCHES OF MERCURY
         F - FALLING PRESSURE   R - RISING PRESSURE
         S - STEADY PRESSURE
VSB    - VISIBILITY IN MILES
HX     - HEAT INDEX IN FAHRENHEIT
WCI    - WIND CHILL INDEX IN FAHRENHEIT
TC     - TEMPERATURE IN CELSIUS WHICH IS ALSO KNOWN AS
         TEMPERATURE IN CENTIGRADE
AFB    - AIR FORCE BASE
         LUKE AFB IS LUKE AIR FORCE BASE
         DAVIS-MONTHAN IS DAVIS-MONTHAN AIR FORCE BASE
NAS    - NAVAL AIR STATION
         EL CENTRO NAS IS EL CENTRO NAVAL AIR STATION
N/A    - NOT AVAILABLE




USA.gov is the U.S. government's official web portal to all federal, state and local government web resources and services.